Time,TemperatureF,DewpointF,PressureIn,WindDirection,WindDirectionDegrees,WindSpeedMPH,WindSpeedGustMPH,Humidity,HourlyPrecipIn,Conditions,Clouds,dailyrainin,SoftwareType,DateUTC
2013-04-03 00:00:00,36.3,11.3,30.30,North,9,0.0,0.0,35,0.00,,,0.00,VWS V14.01,2013-04-03 04:00:00,
2013-04-03 00:04:00,36.3,11.3,30.30,NNW,328,0.0,0.0,35,0.00,,,0.00,VWS V14.01,2013-04-03 04:04:00,
2013-04-03 00:09:00,36.2,11.2,30.30,NE,46,0.0,0.0,35,0.00,,,0.00,VWS V14.01,2013-04-03 04:09:00,
2013-04-03 00:10:00,36.2,11.2,30.30,NE,46,0.0,0.0,35,0.00,,,0.00,VWS V14.01,2013-04-03 04:10:00,
2013-04-03 00:14:00,36.0,11.6,30.31,NNE,22,0.0,0.0,36,0.00,,,0.00,VWS V14.01,2013-04-03 04:14:00,
2013-04-03 00:19:00,35.9,12.2,30.31,NNE,22,0.0,0.0,37,0.00,,,0.00,VWS V14.01,2013-04-03 04:19:00,
2013-04-03 00:20:00,35.9,12.2,30.31,NNE,22,2.0,0.0,37,0.00,,,0.00,VWS V14.01,2013-04-03 04:20:00,
2013-04-03 00:24:00,35.9,11.6,30.31,NNE,22,0.0,0.0,36,0.00,,,0.00,VWS V14.01,2013-04-03 04:24:00,
2013-04-03 00:29:00,35.8,11.5,30.32,NNE,22,0.0,0.0,36,0.00,,,0.00,VWS V14.01,2013-04-03 04:29:00,
2013-04-03 00:30:00,35.8,11.5,30.32,NNE,22,0.0,0.0,36,0.00,,,0.00,VWS V14.01,2013-04-03 04:30:00,
2013-04-03 00:34:00,35.8,12.1,30.32,NNE,22,2.0,0.0,37,0.00,,,0.00,VWS V14.01,2013-04-03 04:34:00,
2013-04-03 00:39:00,35.6,11.9,30.32,NNE,22,0.0,0.0,37,0.00,,,0.00,VWS V14.01,2013-04-03 04:39:00,
2013-04-03 00:40:00,35.6,11.9,30.32,NNE,22,0.0,0.0,37,0.00,,,0.00,VWS V14.01,2013-04-03 04:40:00,
2013-04-03 00:44:00,35.5,12.4,30.32,NNE,22,0.0,0.0,38,0.00,,,0.00,VWS V14.01,2013-04-03 04:44:00,
2013-04-03 00:49:00,35.3,12.2,30.32,NNE,21,0.0,0.0,38,0.00,,,0.00,VWS V14.01,2013-04-03 04:49:00,
2013-04-03 00:50:00,35.3,12.2,30.32,NNE,21,0.0,0.0,38,0.00,,,0.00,VWS V14.01,2013-04-03 04:50:00,
2013-04-03 00:54:00,35.2,12.1,30.32,North,351,0.0,0.0,38,0.00,,,0.00,VWS V14.01,2013-04-03 04:54:00,
2013-04-03 00:59:00,35.0,12.6,30.32,North,360,1.0,0.0,39,0.00,,,0.00,VWS V14.01,2013-04-03 04:59:00,
2013-04-03 01:00:00,35.0,12.6,30.32,North,360,0.0,0.0,39,0.00,,,0.00,VWS V14.01,2013-04-03 05:00:00,
2013-04-03 01:04:00,35.0,12.6,30.32,North,349,1.0,0.0,39,0.00,,,0.00,VWS V14.01,2013-04-03 05:04:00,
2013-04-03 01:09:00,35.0,12.6,30.32,NNE,28,0.0,0.0,39,0.00,,,0.00,VWS V14.01,2013-04-03 05:09:00,
2013-04-03 01:10:00,35.0,12.6,30.32,NNE,28,0.0,0.0,39,0.00,,,0.00,VWS V14.01,2013-04-03 05:10:00,
2013-04-03 01:15:00,34.9,12.5,30.32,NNE,28,0.0,0.0,39,0.00,,,0.00,VWS V14.01,2013-04-03 05:15:00,
2013-04-03 01:20:00,34.9,12.5,30.32,NNE,22,1.0,0.0,39,0.00,,,0.00,VWS V14.01,2013-04-03 05:20:00,
2013-04-03 01:25:00,34.7,12.3,30.32,NNE,19,3.0,0.0,39,0.00,,,0.00,VWS V14.01,2013-04-03 05:25:00,
2013-04-03 01:30:00,34.6,12.8,30.32,NNE,19,0.0,0.0,40,0.00,,,0.00,VWS V14.01,2013-04-03 05:30:00,
2013-04-03 01:35:00,34.6,12.8,30.32,NNE,24,0.0,0.0,40,0.00,,,0.00,VWS V14.01,2013-04-03 05:35:00,
2013-04-03 01:40:00,34.4,12.6,30.32,NNE,24,1.0,0.0,40,0.00,,,0.00,VWS V14.01,2013-04-03 05:40:00,
2013-04-03 01:45:00,34.4,12.6,30.32,NNE,26,0.0,0.0,40,0.00,,,0.00,VWS V14.01,2013-04-03 05:45:00,
2013-04-03 01:50:00,34.4,12.6,30.32,NNE,25,0.0,0.0,40,0.00,,,0.00,VWS V14.01,2013-04-03 05:50:00,
2013-04-03 01:55:00,34.4,12.6,30.32,NNE,25,0.0,0.0,40,0.00,,,0.00,VWS V14.01,2013-04-03 05:55:00,
2013-04-03 02:00:00,34.4,13.1,30.32,NNE,25,0.0,0.0,41,0.00,,,0.00,VWS V14.01,2013-04-03 06:00:00,
2013-04-03 02:05:00,34.4,13.1,30.32,NE,44,1.0,0.0,41,0.00,,,0.00,VWS V14.01,2013-04-03 06:05:00,
2013-04-03 02:10:00,34.4,12.6,30.32,NE,42,0.0,0.0,40,0.00,,,0.00,VWS V14.01,2013-04-03 06:10:00,
2013-04-03 02:15:00,34.4,12.6,30.32,NE,42,0.0,0.0,40,0.00,,,0.00,VWS V14.01,2013-04-03 06:15:00,
2013-04-03 02:20:00,34.6,12.8,30.32,NE,42,0.0,0.0,40,0.00,,,0.00,VWS V14.01,2013-04-03 06:20:00,
2013-04-03 02:25:00,34.6,12.8,30.32,NE,42,0.0,0.0,40,0.00,,,0.00,VWS V14.01,2013-04-03 06:25:00,
2013-04-03 02:30:00,34.6,12.8,30.32,NNE,22,2.0,0.0,40,0.00,,,0.00,VWS V14.01,2013-04-03 06:30:00,
2013-04-03 02:35:00,34.6,12.8,30.32,NNE,22,0.0,0.0,40,0.00,,,0.00,VWS V14.01,2013-04-03 06:35:00,
2013-04-03 02:40:00,34.6,12.8,30.32,East,82,0.0,0.0,40,0.00,,,0.00,VWS V14.01,2013-04-03 06:40:00,
2013-04-03 02:45:00,34.4,12.6,30.32,East,82,0.0,0.0,40,0.00,,,0.00,VWS V14.01,2013-04-03 06:45:00,
2013-04-03 02:50:00,34.3,13.1,30.32,East,82,0.0,0.0,41,0.00,,,0.00,VWS V14.01,2013-04-03 06:50:00,
2013-04-03 02:55:00,34.0,13.3,30.32,East,82,0.0,0.0,42,0.00,,,0.00,VWS V14.01,2013-04-03 06:55:00,
2013-04-03 03:00:00,33.8,13.1,30.32,East,82,0.0,0.0,42,0.00,,,0.00,VWS V14.01,2013-04-03 07:00:00,
2013-04-03 03:01:00,33.7,13.1,30.32,East,82,0.0,0.0,42,0.00,,,0.00,VWS V14.01,2013-04-03 07:01:00,
2013-04-03 03:06:00,33.5,12.9,30.32,East,82,0.0,0.0,42,0.00,,,0.00,VWS V14.01,2013-04-03 07:06:00,
2013-04-03 03:10:00,33.4,13.3,30.32,East,82,0.0,0.0,43,0.00,,,0.00,VWS V14.01,2013-04-03 07:10:00,
2013-04-03 03:26:00,32.8,13.3,30.32,East,82,0.0,0.0,44,0.00,,,0.00,VWS V14.01,2013-04-03 07:26:00,
2013-04-03 04:12:00,31.5,13.6,30.32,East,82,0.0,0.0,47,0.00,,,0.00,VWS V14.01,2013-04-03 08:12:00,
2013-04-03 04:17:00,33.4,13.3,30.32,East,82,0.0,0.0,43,0.00,,,0.00,VWS V14.01,2013-04-03 08:17:00,
2013-04-03 04:22:00,33.1,13.6,30.32,East,82,0.0,0.0,44,0.00,,,0.00,VWS V14.01,2013-04-03 08:22:00,
2013-04-03 04:27:00,32.9,13.4,30.32,East,82,0.0,0.0,44,0.00,,,0.00,VWS V14.01,2013-04-03 08:27:00,
2013-04-03 04:32:00,31.3,13.4,30.32,East,82,0.0,0.0,47,0.00,,,0.00,VWS V14.01,2013-04-03 08:32:00,
2013-04-03 04:35:00,32.7,13.2,30.32,East,82,0.0,0.0,44,0.00,,,0.00,VWS V14.01,2013-04-03 08:35:00,
2013-04-03 04:42:00,32.5,13.0,30.32,East,82,0.0,0.0,44,0.00,,,0.00,VWS V14.01,2013-04-03 08:42:00,
2013-04-03 04:47:00,32.4,13.4,30.32,East,82,0.0,0.0,45,0.00,,,0.00,VWS V14.01,2013-04-03 08:47:00,
2013-04-03 04:52:00,32.2,13.3,30.32,East,82,0.0,0.0,45,0.00,,,0.00,VWS V14.01,2013-04-03 08:52:00,
2013-04-03 04:57:00,31.9,13.0,30.32,East,82,0.0,0.0,45,0.00,,,0.00,VWS V14.01,2013-04-03 08:57:00,
2013-04-03 05:02:00,31.8,12.9,30.32,East,82,0.0,0.0,45,0.00,,,0.00,VWS V14.01,2013-04-03 09:02:00,
2013-04-03 05:07:00,31.8,13.9,30.32,East,82,0.0,0.0,47,0.00,,,0.00,VWS V14.01,2013-04-03 09:07:00,
2013-04-03 05:12:00,31.6,13.7,30.32,East,82,0.0,0.0,47,0.00,,,0.00,VWS V14.01,2013-04-03 09:12:00,
2013-04-03 05:17:00,30.4,14.9,30.32,East,82,0.0,0.0,52,0.00,,,0.00,VWS V14.01,2013-04-03 09:17:00,
2013-04-03 05:22:00,31.3,13.4,30.32,East,82,0.0,0.0,47,0.00,,,0.00,VWS V14.01,2013-04-03 09:22:00,
2013-04-03 05:27:00,30.3,14.4,30.32,East,82,0.0,0.0,51,0.00,,,0.00,VWS V14.01,2013-04-03 09:27:00,
2013-04-03 05:32:00,31.3,13.4,30.32,East,82,0.0,0.0,47,0.00,,,0.00,VWS V14.01,2013-04-03 09:32:00,
2013-04-03 05:42:00,31.5,13.1,30.32,East,82,0.0,0.0,46,0.00,,,0.00,VWS V14.01,2013-04-03 09:42:00,
2013-04-03 05:47:00,31.5,13.6,30.32,East,82,0.0,0.0,47,0.00,,,0.00,VWS V14.01,2013-04-03 09:47:00,
2013-04-03 05:52:00,31.5,13.6,30.32,East,82,0.0,0.0,47,0.00,,,0.00,VWS V14.01,2013-04-03 09:52:00,
2013-04-03 05:57:00,31.5,13.6,30.32,East,82,0.0,0.0,47,0.00,,,0.00,VWS V14.01,2013-04-03 09:57:00,
2013-04-03 06:05:00,30.9,14.5,30.32,East,82,0.0,0.0,50,0.00,,,0.00,VWS V14.01,2013-04-03 10:05:00,
2013-04-03 06:13:00,30.7,14.3,30.32,East,82,0.0,0.0,50,0.00,,,0.00,VWS V14.01,2013-04-03 10:13:00,
2013-04-03 06:18:00,30.4,14.4,30.32,East,82,0.0,0.0,51,0.00,,,0.00,VWS V14.01,2013-04-03 10:18:00,
2013-04-03 06:25:00,30.3,14.8,30.32,East,82,0.0,0.0,52,0.00,,,0.00,VWS V14.01,2013-04-03 10:25:00,
2013-04-03 06:35:00,30.3,14.8,30.32,East,82,0.0,0.0,52,0.00,,,0.00,VWS V14.01,2013-04-03 10:35:00,
2013-04-03 06:43:00,30.4,14.0,30.32,East,82,0.0,0.0,50,0.00,,,0.00,VWS V14.01,2013-04-03 10:43:00,
2013-04-03 06:48:00,30.4,14.0,30.32,East,82,0.0,0.0,50,0.00,,,0.00,VWS V14.01,2013-04-03 10:48:00,
2013-04-03 06:53:00,30.6,14.2,30.32,East,82,0.0,0.0,50,0.00,,,0.00,VWS V14.01,2013-04-03 10:53:00,
2013-04-03 06:58:00,30.9,14.5,30.32,East,82,0.0,0.0,50,0.00,,,0.00,VWS V14.01,2013-04-03 10:58:00,
2013-04-03 07:03:00,30.9,14.0,30.32,NE,53,0.0,0.0,49,0.00,,,0.00,VWS V14.01,2013-04-03 11:03:00,
2013-04-03 07:08:00,31.0,13.6,30.33,NE,53,0.0,0.0,48,0.00,,,0.00,VWS V14.01,2013-04-03 11:08:00,
2013-04-03 07:13:00,31.0,14.1,30.33,NE,53,0.0,0.0,49,0.00,,,0.00,VWS V14.01,2013-04-03 11:13:00,
2013-04-03 07:18:00,30.9,14.0,30.33,NE,53,0.0,0.0,49,0.00,,,0.00,VWS V14.01,2013-04-03 11:18:00,
2013-04-03 07:23:00,30.7,14.3,30.34,NE,53,1.0,0.0,50,0.00,,,0.00,VWS V14.01,2013-04-03 11:23:00,
2013-04-03 07:28:00,30.7,14.3,30.34,NE,53,0.0,0.0,50,0.00,,,0.00,VWS V14.01,2013-04-03 11:28:00,
2013-04-03 07:33:00,30.4,14.0,30.34,NE,53,0.0,0.0,50,0.00,,,0.00,VWS V14.01,2013-04-03 11:33:00,
2013-04-03 07:38:00,30.6,14.2,30.36,NE,53,0.0,0.0,50,0.00,,,0.00,VWS V14.01,2013-04-03 11:38:00,
2013-04-03 07:43:00,30.6,14.2,30.36,NE,53,0.0,0.0,50,0.00,,,0.00,VWS V14.01,2013-04-03 11:43:00,
2013-04-03 07:48:00,31.0,14.6,30.36,NE,53,2.0,0.0,50,0.00,,,0.00,VWS V14.01,2013-04-03 11:48:00,
2013-04-03 07:53:00,31.5,14.1,30.36,NE,53,0.0,0.0,48,0.00,,,0.00,VWS V14.01,2013-04-03 11:53:00,
2013-04-03 07:58:00,31.8,14.4,30.36,NE,54,0.0,0.0,48,0.00,,,0.00,VWS V14.01,2013-04-03 11:58:00,
2013-04-03 08:03:00,32.1,14.2,30.36,NE,54,0.0,0.0,47,0.00,,,0.00,VWS V14.01,2013-04-03 12:03:00,
2013-04-03 08:08:00,32.5,14.5,30.38,East,80,0.0,0.0,47,0.00,,,0.00,VWS V14.01,2013-04-03 12:08:00,
2013-04-03 08:13:00,32.8,14.3,30.38,East,85,1.0,0.0,46,0.00,,,0.00,VWS V14.01,2013-04-03 12:13:00,
2013-04-03 08:18:00,33.1,14.6,30.38,ENE,59,2.0,0.0,46,0.00,,,0.00,VWS V14.01,2013-04-03 12:18:00,
2013-04-03 08:23:00,33.2,14.2,30.38,ENE,68,2.0,0.0,45,0.00,,,0.00,VWS V14.01,2013-04-03 12:23:00,
2013-04-03 08:28:00,33.4,14.9,30.38,ENE,78,0.0,0.0,46,0.00,,,0.00,VWS V14.01,2013-04-03 12:28:00,
2013-04-03 08:33:00,33.7,14.6,30.38,ENE,73,0.0,0.0,45,0.00,,,0.00,VWS V14.01,2013-04-03 12:33:00,
2013-04-03 08:38:00,34.3,15.2,30.39,East,85,2.0,0.0,45,0.00,,,0.00,VWS V14.01,2013-04-03 12:38:00,
2013-04-03 08:43:00,34.6,14.9,30.39,ENE,61,0.0,0.0,44,0.00,,,0.00,VWS V14.01,2013-04-03 12:43:00,
2013-04-03 08:48:00,34.9,15.2,30.39,ENE,65,3.0,0.0,44,0.00,,,0.00,VWS V14.01,2013-04-03 12:48:00,
2013-04-03 08:53:00,35.2,15.0,30.40,East,83,2.0,0.0,43,0.00,,,0.00,VWS V14.01,2013-04-03 12:53:00,
2013-04-03 08:58:00,35.5,15.2,30.40,ENE,69,0.0,0.0,43,0.00,,,0.00,VWS V14.01,2013-04-03 12:58:00,
2013-04-03 09:03:00,35.8,16.0,30.40,East,82,1.0,0.0,44,0.00,,,0.00,VWS V14.01,2013-04-03 13:03:00,
2013-04-03 09:08:00,36.0,14.6,30.40,ENE,57,3.0,0.0,41,0.00,,,0.00,VWS V14.01,2013-04-03 13:08:00,
2013-04-03 09:13:00,36.3,15.4,30.40,ENE,76,0.0,0.0,42,0.00,,,0.00,VWS V14.01,2013-04-03 13:13:00,
2013-04-03 09:18:00,36.9,15.4,30.40,ENE,72,2.0,0.0,41,0.00,,,0.00,VWS V14.01,2013-04-03 13:18:00,
2013-04-03 09:23:00,37.5,16.0,30.41,ENE,64,3.0,0.0,41,0.00,,,0.00,VWS V14.01,2013-04-03 13:23:00,
2013-04-03 09:28:00,37.8,14.5,30.41,NE,53,3.0,0.0,38,0.00,,,0.00,VWS V14.01,2013-04-03 13:28:00,
2013-04-03 09:33:00,37.8,13.9,30.41,East,94,5.0,0.0,37,0.00,,,0.00,VWS V14.01,2013-04-03 13:33:00,
2013-04-03 09:38:00,37.9,14.6,30.41,East,82,2.0,0.0,38,0.00,,,0.00,VWS V14.01,2013-04-03 13:38:00,
2013-04-03 09:43:00,38.2,14.2,30.41,NE,37,4.0,0.0,37,0.00,,,0.00,VWS V14.01,2013-04-03 13:43:00,
2013-04-03 09:48:00,38.2,14.2,30.41,ENE,62,1.0,0.0,37,0.00,,,0.00,VWS V14.01,2013-04-03 13:48:00,
2013-04-03 09:53:00,38.6,15.2,30.41,NNE,32,1.0,0.0,38,0.00,,,0.00,VWS V14.01,2013-04-03 13:53:00,
2013-04-03 09:58:00,38.8,14.8,30.41,NE,38,3.0,0.0,37,0.00,,,0.00,VWS V14.01,2013-04-03 13:58:00,
2013-04-03 10:03:00,38.9,14.2,30.41,NE,56,1.0,0.0,36,0.00,,,0.00,VWS V14.01,2013-04-03 14:03:00,
2013-04-03 10:08:00,39.3,14.6,30.41,ENE,72,5.0,0.0,36,0.00,,,0.00,VWS V14.01,2013-04-03 14:08:00,
2013-04-03 10:13:00,40.1,14.0,30.41,East,88,3.0,0.0,34,0.00,,,0.00,VWS V14.01,2013-04-03 14:13:00,
2013-04-03 10:18:00,40.3,12.8,30.41,NE,56,0.0,0.0,32,0.00,,,0.00,VWS V14.01,2013-04-03 14:18:00,
2013-04-03 10:23:00,40.6,14.4,30.42,ENE,69,4.0,0.0,34,0.00,,,0.00,VWS V14.01,2013-04-03 14:23:00,
2013-04-03 10:28:00,41.2,15.6,30.42,NE,44,5.0,0.0,35,0.00,,,0.00,VWS V14.01,2013-04-03 14:28:00,
2013-04-03 10:33:00,41.2,12.9,30.42,East,80,7.0,0.0,31,0.00,,,0.00,VWS V14.01,2013-04-03 14:33:00,
2013-04-03 10:39:00,40.5,13.0,30.43,NE,37,0.0,0.0,32,0.00,,,0.00,VWS V14.01,2013-04-03 14:39:00,
2013-04-03 10:44:00,41.1,13.5,30.43,East,92,3.0,0.0,32,0.00,,,0.00,VWS V14.01,2013-04-03 14:44:00,
2013-04-03 10:49:00,41.3,10.7,30.43,East,82,1.0,0.0,28,0.00,,,0.00,VWS V14.01,2013-04-03 14:49:00,
2013-04-03 10:54:00,41.8,13.4,30.43,NNE,23,4.0,0.0,31,0.00,,,0.00,VWS V14.01,2013-04-03 14:54:00,
2013-04-03 10:59:00,42.2,12.2,30.43,NE,46,0.0,0.0,29,0.00,,,0.00,VWS V14.01,2013-04-03 14:59:00,
2013-04-03 11:04:00,42.3,11.5,30.43,ENE,63,4.0,0.0,28,0.00,,,0.00,VWS V14.01,2013-04-03 15:04:00,
2013-04-03 11:09:00,42.6,12.6,30.42,NE,53,5.0,0.0,29,0.00,,,0.00,VWS V14.01,2013-04-03 15:09:00,
2013-04-03 11:14:00,42.6,11.8,30.42,NE,45,3.0,0.0,28,0.00,,,0.00,VWS V14.01,2013-04-03 15:14:00,
2013-04-03 11:19:00,42.8,13.5,30.42,ENE,72,5.0,0.0,30,0.00,,,0.00,VWS V14.01,2013-04-03 15:19:00,
2013-04-03 11:24:00,42.1,11.4,30.43,East,80,3.0,0.0,28,0.00,,,0.00,VWS V14.01,2013-04-03 15:24:00,
2013-04-03 11:29:00,41.9,12.7,30.43,ENE,74,4.0,0.0,30,0.00,,,0.00,VWS V14.01,2013-04-03 15:29:00,
2013-04-03 11:34:00,42.2,14.5,30.43,ENE,63,3.0,0.0,32,0.00,,,0.00,VWS V14.01,2013-04-03 15:34:00,
2013-04-03 11:39:00,42.8,12.0,30.42,NNE,17,8.0,0.0,28,0.00,,,0.00,VWS V14.01,2013-04-03 15:39:00,
2013-04-03 11:44:00,42.8,12.0,30.42,ENE,78,2.0,0.0,28,0.00,,,0.00,VWS V14.01,2013-04-03 15:44:00,
2013-04-03 11:49:00,43.2,11.5,30.42,ENE,65,3.0,0.0,27,0.00,,,0.00,VWS V14.01,2013-04-03 15:49:00,
2013-04-03 11:54:00,43.8,12.8,30.42,ENE,73,4.0,0.0,28,0.00,,,0.00,VWS V14.01,2013-04-03 15:54:00,
2013-04-03 12:04:00,43.8,12.0,30.42,ESE,107,5.0,0.0,27,0.00,,,0.00,VWS V14.01,2013-04-03 16:04:00,
2013-04-03 12:09:00,43.8,12.0,30.41,North,360,1.0,0.0,27,0.00,,,0.00,VWS V14.01,2013-04-03 16:09:00,
2013-04-03 12:14:00,43.5,12.6,30.41,NNW,338,3.0,0.0,28,0.00,,,0.00,VWS V14.01,2013-04-03 16:14:00,
2013-04-03 12:19:00,43.3,11.6,30.41,NNW,334,5.0,0.0,27,0.00,,,0.00,VWS V14.01,2013-04-03 16:19:00,
2013-04-03 12:24:00,43.3,13.2,30.41,NNW,344,6.0,0.0,29,0.00,,,0.00,VWS V14.01,2013-04-03 16:24:00,
2013-04-03 12:29:00,43.6,12.7,30.41,ENE,65,2.0,0.0,28,0.00,,,0.00,VWS V14.01,2013-04-03 16:29:00,
2013-04-03 12:34:00,44.5,13.4,30.41,NE,48,3.0,0.0,28,0.00,,,0.00,VWS V14.01,2013-04-03 16:34:00,
2013-04-03 12:39:00,44.9,13.0,30.41,NE,34,5.0,0.0,27,0.00,,,0.00,VWS V14.01,2013-04-03 16:39:00,
2013-04-03 12:44:00,44.9,13.8,30.41,NE,46,4.0,0.0,28,0.00,,,0.00,VWS V14.01,2013-04-03 16:44:00,
2013-04-03 12:49:00,45.4,14.2,30.40,NE,45,8.0,0.0,28,0.00,,,0.00,VWS V14.01,2013-04-03 16:49:00,
2013-04-03 12:54:00,44.5,12.6,30.40,NNW,336,9.0,0.0,27,0.00,,,0.00,VWS V14.01,2013-04-03 16:54:00,
2013-04-03 12:59:00,43.8,12.8,30.40,ENE,74,4.0,0.0,28,0.00,,,0.00,VWS V14.01,2013-04-03 16:59:00,
2013-04-03 13:04:00,44.1,13.1,30.40,NNW,331,8.0,0.0,28,0.00,,,0.00,VWS V14.01,2013-04-03 17:04:00,
2013-04-03 13:10:00,45.1,14.0,30.40,ENE,65,3.0,0.0,28,0.00,,,0.00,VWS V14.01,2013-04-03 17:10:00,
2013-04-03 13:15:00,45.2,14.1,30.40,NE,41,1.0,0.0,28,0.00,,,0.00,VWS V14.01,2013-04-03 17:15:00,
2013-04-03 13:20:00,45.2,14.1,30.40,East,90,5.0,0.0,28,0.00,,,0.00,VWS V14.01,2013-04-03 17:20:00,
2013-04-03 13:25:00,45.1,14.0,30.40,ENE,76,7.0,0.0,28,0.00,,,0.00,VWS V14.01,2013-04-03 17:25:00,
2013-04-03 13:30:00,45.8,14.6,30.40,ENE,69,1.0,0.0,28,0.00,,,0.00,VWS V14.01,2013-04-03 17:30:00,
2013-04-03 13:35:00,45.5,14.3,30.38,ENE,61,5.0,0.0,28,0.00,,,0.00,VWS V14.01,2013-04-03 17:35:00,
2013-04-03 13:40:00,45.2,14.1,30.38,NNE,26,4.0,0.0,28,0.00,,,0.00,VWS V14.01,2013-04-03 17:40:00,
2013-04-03 13:45:00,46.0,14.7,30.38,NNE,32,7.0,0.0,28,0.00,,,0.00,VWS V14.01,2013-04-03 17:45:00,
2013-04-03 13:50:00,46.0,14.7,30.38,ENE,63,0.0,0.0,28,0.00,,,0.00,VWS V14.01,2013-04-03 17:50:00,
2013-04-03 13:55:00,46.7,15.3,30.38,ENE,73,3.0,0.0,28,0.00,,,0.00,VWS V14.01,2013-04-03 17:55:00,
2013-04-03 14:00:00,46.5,15.2,30.38,NNE,31,5.0,0.0,28,0.00,,,0.00,VWS V14.01,2013-04-03 18:00:00,
2013-04-03 14:05:00,46.8,15.4,30.38,North,5,4.0,0.0,28,0.00,,,0.00,VWS V14.01,2013-04-03 18:05:00,
2013-04-03 14:10:00,46.0,14.7,30.38,ENE,69,1.0,0.0,28,0.00,,,0.00,VWS V14.01,2013-04-03 18:10:00,
2013-04-03 14:15:00,46.5,15.2,30.38,NNE,33,4.0,0.0,28,0.00,,,0.00,VWS V14.01,2013-04-03 18:15:00,
2013-04-03 14:20:00,46.8,15.4,30.38,ENE,76,3.0,0.0,28,0.00,,,0.00,VWS V14.01,2013-04-03 18:20:00,
2013-04-03 14:25:00,47.0,14.8,30.38,NE,35,4.0,0.0,27,0.00,,,0.00,VWS V14.01,2013-04-03 18:25:00,
2013-04-03 14:30:00,46.8,14.6,30.38,NE,39,6.0,0.0,27,0.00,,,0.00,VWS V14.01,2013-04-03 18:30:00,
2013-04-03 14:35:00,46.2,14.9,30.38,NE,44,5.0,0.0,28,0.00,,,0.00,VWS V14.01,2013-04-03 18:35:00,
2013-04-03 14:40:00,46.5,13.5,30.38,ENE,65,7.0,0.0,26,0.00,,,0.00,VWS V14.01,2013-04-03 18:40:00,
2013-04-03 14:45:00,46.5,14.3,30.38,ENE,68,4.0,0.0,27,0.00,,,0.00,VWS V14.01,2013-04-03 18:45:00,
2013-04-03 14:50:00,47.1,14.9,30.38,ENE,63,2.0,0.0,27,0.00,,,0.00,VWS V14.01,2013-04-03 18:50:00,
2013-04-03 14:55:00,47.6,14.4,30.38,NNE,20,4.0,0.0,26,0.00,,,0.00,VWS V14.01,2013-04-03 18:55:00,
2013-04-03 15:00:00,47.9,16.4,30.38,NE,51,5.0,0.0,28,0.00,,,0.00,VWS V14.01,2013-04-03 19:00:00,
2013-04-03 15:05:00,47.4,15.1,30.38,North,355,0.0,0.0,27,0.00,,,0.00,VWS V14.01,2013-04-03 19:05:00,
2013-04-03 15:10:00,48.0,15.6,30.38,NE,49,5.0,0.0,27,0.00,,,0.00,VWS V14.01,2013-04-03 19:10:00,
2013-04-03 15:15:00,47.7,15.4,30.38,SE,126,3.0,0.0,27,0.00,,,0.00,VWS V14.01,2013-04-03 19:15:00,
2013-04-03 15:20:00,47.9,15.6,30.38,ENE,65,4.0,0.0,27,0.00,,,0.00,VWS V14.01,2013-04-03 19:20:00,
2013-04-03 15:25:00,47.6,16.1,30.38,East,82,3.0,0.0,28,0.00,,,0.00,VWS V14.01,2013-04-03 19:25:00,
2013-04-03 15:30:00,48.0,13.9,30.38,ENE,59,2.0,0.0,25,0.00,,,0.00,VWS V14.01,2013-04-03 19:30:00,
2013-04-03 15:35:00,47.9,15.6,30.39,NNW,337,6.0,0.0,27,0.00,,,0.00,VWS V14.01,2013-04-03 19:35:00,
2013-04-03 15:40:00,47.9,14.7,30.39,ENE,69,3.0,0.0,26,0.00,,,0.00,VWS V14.01,2013-04-03 19:40:00,
2013-04-03 15:45:00,48.2,14.9,30.39,NNE,22,6.0,0.0,26,0.00,,,0.00,VWS V14.01,2013-04-03 19:45:00,
2013-04-03 15:50:00,48.0,12.9,30.39,NNW,339,7.0,0.0,24,0.00,,,0.00,VWS V14.01,2013-04-03 19:50:00,
2013-04-03 15:55:00,47.9,14.7,30.39,NE,42,2.0,0.0,26,0.00,,,0.00,VWS V14.01,2013-04-03 19:55:00,
2013-04-03 16:00:00,48.5,15.2,30.39,ENE,61,2.0,0.0,26,0.00,,,0.00,VWS V14.01,2013-04-03 20:00:00,
2013-04-03 16:05:00,48.9,15.5,30.39,NE,38,0.0,0.0,26,0.00,,,0.00,VWS V14.01,2013-04-03 20:05:00,
2013-04-03 16:10:00,48.8,14.6,30.39,NNW,344,9.0,0.0,25,0.00,,,0.00,VWS V14.01,2013-04-03 20:10:00,
2013-04-03 16:15:00,48.6,13.5,30.39,ENE,74,0.0,0.0,24,0.00,,,0.00,VWS V14.01,2013-04-03 20:15:00,
2013-04-03 16:20:00,48.9,16.4,30.38,ENE,74,5.0,0.0,27,0.00,,,0.00,VWS V14.01,2013-04-03 20:20:00,
2013-04-03 16:26:00,48.9,14.6,30.38,NNE,25,2.0,0.0,25,0.00,,,0.00,VWS V14.01,2013-04-03 20:26:00,
2013-04-03 16:31:00,48.5,15.2,30.38,ENE,73,5.0,0.0,26,0.00,,,0.00,VWS V14.01,2013-04-03 20:31:00,
2013-04-03 16:36:00,48.0,15.6,30.38,NE,42,1.0,0.0,27,0.00,,,0.00,VWS V14.01,2013-04-03 20:36:00,
2013-04-03 16:41:00,48.2,14.9,30.38,ENE,67,5.0,0.0,26,0.00,,,0.00,VWS V14.01,2013-04-03 20:41:00,
2013-04-03 16:46:00,48.5,15.2,30.38,ENE,78,5.0,0.0,26,0.00,,,0.00,VWS V14.01,2013-04-03 20:46:00,
2013-04-03 16:50:00,47.6,14.4,30.36,ENE,59,3.0,0.0,26,0.00,,,0.00,VWS V14.01,2013-04-03 20:50:00,
2013-04-03 16:51:00,48.3,14.1,30.38,ENE,58,8.0,0.0,25,0.00,,,0.00,VWS V14.01,2013-04-03 20:51:00,
2013-04-03 16:56:00,48.3,15.9,30.38,ENE,77,4.0,0.0,27,0.00,,,0.00,VWS V14.01,2013-04-03 20:56:00,
2013-04-03 17:00:00,47.6,13.5,30.36,ENE,78,7.0,0.0,25,0.00,,,0.00,VWS V14.01,2013-04-03 21:00:00,
2013-04-03 17:01:00,48.5,15.2,30.38,ENE,71,5.0,0.0,26,0.00,,,0.00,VWS V14.01,2013-04-03 21:01:00,
2013-04-03 17:11:00,48.0,13.9,30.38,East,86,8.0,0.0,25,0.00,,,0.00,VWS V14.01,2013-04-03 21:11:00,
2013-04-03 17:16:00,48.2,15.8,30.38,ENE,70,5.0,0.0,27,0.00,,,0.00,VWS V14.01,2013-04-03 21:16:00,
2013-04-03 17:20:00,47.1,13.1,30.35,ENE,59,5.0,0.0,25,0.00,,,0.00,VWS V14.01,2013-04-03 21:20:00,
2013-04-03 17:25:00,47.9,14.7,30.37,NE,39,4.0,0.0,26,0.00,,,0.00,VWS V14.01,2013-04-03 21:25:00,
2013-04-03 17:31:00,48.2,14.9,30.37,NE,42,4.0,0.0,26,0.00,,,0.00,VWS V14.01,2013-04-03 21:31:00,
2013-04-03 17:37:00,48.2,14.9,30.37,NNE,13,3.0,0.0,26,0.00,,,0.00,VWS V14.01,2013-04-03 21:37:00,
2013-04-03 17:40:00,46.7,12.8,30.35,ENE,60,5.0,0.0,25,0.00,,,0.00,VWS V14.01,2013-04-03 21:40:00,
2013-04-03 17:41:00,46.5,13.5,30.35,NE,40,5.0,0.0,26,0.00,,,0.00,VWS V14.01,2013-04-03 21:41:00,
2013-04-03 17:42:00,48.0,12.9,30.37,ENE,78,4.0,0.0,24,0.00,,,0.00,VWS V14.01,2013-04-03 21:42:00,
2013-04-03 17:47:00,48.0,13.9,30.37,ENE,76,1.0,0.0,25,0.00,,,0.00,VWS V14.01,2013-04-03 21:47:00,
2013-04-03 17:50:00,46.5,12.6,30.34,ENE,74,3.0,0.0,25,0.00,,,0.00,VWS V14.01,2013-04-03 21:50:00,
2013-04-03 17:57:00,47.6,15.3,30.36,NE,41,5.0,0.0,27,0.00,,,0.00,VWS V14.01,2013-04-03 21:57:00,
2013-04-03 18:02:00,47.6,12.6,30.36,East,82,5.0,0.0,24,0.00,,,0.00,VWS V14.01,2013-04-03 22:02:00,
2013-04-03 18:07:00,47.4,14.2,30.36,ENE,62,2.0,0.0,26,0.00,,,0.00,VWS V14.01,2013-04-03 22:07:00,
2013-04-03 18:12:00,47.3,12.4,30.36,ENE,64,5.0,0.0,24,0.00,,,0.00,VWS V14.01,2013-04-03 22:12:00,
2013-04-03 18:16:00,45.7,12.8,30.33,ENE,63,3.0,0.0,26,0.00,,,0.00,VWS V14.01,2013-04-03 22:16:00,
2013-04-03 18:20:00,45.7,12.8,30.33,East,86,7.0,0.0,26,0.00,,,0.00,VWS V14.01,2013-04-03 22:20:00,
2013-04-03 18:22:00,47.3,12.4,30.35,NE,53,6.0,0.0,24,0.00,,,0.00,VWS V14.01,2013-04-03 22:22:00,
2013-04-03 18:27:00,47.0,13.0,30.35,ENE,74,2.0,0.0,25,0.00,,,0.00,VWS V14.01,2013-04-03 22:27:00,
2013-04-03 18:32:00,46.8,13.7,30.35,NNE,30,5.0,0.0,26,0.00,,,0.00,VWS V14.01,2013-04-03 22:32:00,
2013-04-03 18:37:00,46.8,13.7,30.35,NE,53,1.0,0.0,26,0.00,,,0.00,VWS V14.01,2013-04-03 22:37:00,
2013-04-03 18:40:00,44.8,10.2,30.33,NE,51,4.0,0.0,24,0.00,,,0.00,VWS V14.01,2013-04-03 22:40:00,
2013-04-03 18:42:00,46.7,13.6,30.35,ENE,71,2.0,0.0,26,0.00,,,0.00,VWS V14.01,2013-04-03 22:42:00,
2013-04-03 18:52:00,46.5,12.6,30.34,NE,56,4.0,0.0,25,0.00,,,0.00,VWS V14.01,2013-04-03 22:52:00,
2013-04-03 18:57:00,46.4,12.5,30.34,NE,44,4.0,0.0,25,0.00,,,0.00,VWS V14.01,2013-04-03 22:57:00,
2013-04-03 19:00:00,44.2,11.5,30.32,NE,42,4.0,0.0,26,0.00,,,0.00,VWS V14.01,2013-04-03 23:00:00,
2013-04-03 19:02:00,46.2,11.4,30.34,NE,48,6.0,0.0,24,0.00,,,0.00,VWS V14.01,2013-04-03 23:02:00,
2013-04-03 19:07:00,46.1,12.2,30.33,NE,46,3.0,0.0,25,0.00,,,0.00,VWS V14.01,2013-04-03 23:07:00,
2013-04-03 19:10:00,43.9,12.1,30.32,ENE,69,4.0,0.0,27,0.00,,,0.00,VWS V14.01,2013-04-03 23:10:00,
2013-04-03 19:11:00,43.8,12.0,30.32,NE,53,5.0,0.0,27,0.00,,,0.00,VWS V14.01,2013-04-03 23:11:00,
2013-04-03 19:12:00,46.0,12.2,30.33,ENE,64,2.0,0.0,25,0.00,,,0.00,VWS V14.01,2013-04-03 23:12:00,
2013-04-03 19:17:00,45.8,12.9,30.33,ENE,77,3.0,0.0,26,0.00,,,0.00,VWS V14.01,2013-04-03 23:17:00,
2013-04-03 19:20:00,43.6,12.7,30.32,ENE,59,2.0,0.0,28,0.00,,,0.00,VWS V14.01,2013-04-03 23:20:00,
2013-04-03 19:21:00,43.6,11.8,30.32,NE,51,4.0,0.0,27,0.00,,,0.00,VWS V14.01,2013-04-03 23:21:00,
2013-04-03 19:26:00,43.5,12.6,30.32,NE,44,4.0,0.0,28,0.00,,,0.00,VWS V14.01,2013-04-03 23:26:00,
2013-04-03 19:27:00,45.5,11.7,30.33,NE,55,4.0,0.0,25,0.00,,,0.00,VWS V14.01,2013-04-03 23:27:00,
2013-04-03 19:32:00,45.4,13.4,30.33,NE,53,1.0,0.0,27,0.00,,,0.00,VWS V14.01,2013-04-03 23:32:00,
2013-04-03 19:37:00,45.2,11.5,30.33,ENE,58,3.0,0.0,25,0.00,,,0.00,VWS V14.01,2013-04-03 23:37:00,
2013-04-03 19:40:00,43.2,11.5,30.32,ENE,71,3.0,0.0,27,0.00,,,0.00,VWS V14.01,2013-04-03 23:40:00,
2013-04-03 19:42:00,44.9,10.3,30.33,ENE,57,8.0,0.0,24,0.00,,,0.00,VWS V14.01,2013-04-03 23:42:00,
2013-04-03 19:47:00,44.8,10.2,30.33,NE,55,3.0,0.0,24,0.00,,,0.00,VWS V14.01,2013-04-03 23:47:00,
2013-04-03 19:50:00,43.2,12.3,30.32,NE,37,4.0,0.0,28,0.00,,,0.00,VWS V14.01,2013-04-03 23:50:00,
2013-04-03 19:52:00,44.6,10.1,30.33,NE,48,2.0,0.0,24,0.00,,,0.00,VWS V14.01,2013-04-03 23:52:00,
2013-04-03 19:57:00,44.5,10.9,30.33,NE,45,5.0,0.0,25,0.00,,,0.00,VWS V14.01,2013-04-03 23:57:00,
2013-04-03 20:02:00,44.3,10.7,30.33,NE,36,3.0,0.0,25,0.00,,,0.00,VWS V14.01,2013-04-04 00:02:00,
2013-04-03 20:07:00,44.2,11.5,30.32,NE,40,0.0,0.0,26,0.00,,,0.00,VWS V14.01,2013-04-04 00:07:00,
2013-04-03 20:12:00,44.1,12.3,30.32,NE,56,0.0,0.0,27,0.00,,,0.00,VWS V14.01,2013-04-04 00:12:00,
2013-04-03 20:22:00,43.6,11.8,30.32,NE,42,2.0,0.0,27,0.00,,,0.00,VWS V14.01,2013-04-04 00:22:00,
2013-04-03 20:35:00,43.3,11.6,30.32,NNE,28,4.0,0.0,27,0.00,,,0.00,VWS V14.01,2013-04-04 00:35:00,
2013-04-03 20:42:00,43.3,12.4,30.32,NNE,13,6.0,0.0,28,0.00,,,0.00,VWS V14.01,2013-04-04 00:42:00,
2013-04-03 20:47:00,43.2,12.3,30.32,ENE,64,3.0,0.0,28,0.00,,,0.00,VWS V14.01,2013-04-04 00:47:00,
2013-04-03 20:53:00,43.2,12.3,30.32,ENE,60,4.0,0.0,28,0.00,,,0.00,VWS V14.01,2013-04-04 00:53:00,
2013-04-03 20:58:00,43.2,12.3,30.32,NE,45,2.0,0.0,28,0.00,,,0.00,VWS V14.01,2013-04-04 00:58:00,
2013-04-03 21:05:00,42.9,12.9,30.33,NE,41,2.0,0.0,29,0.00,,,0.00,VWS V14.01,2013-04-04 01:05:00,
2013-04-03 21:13:00,42.8,12.8,30.33,NE,35,2.0,0.0,29,0.00,,,0.00,VWS V14.01,2013-04-04 01:13:00,
2013-04-03 21:18:00,42.6,12.6,30.33,ENE,71,3.0,0.0,29,0.00,,,0.00,VWS V14.01,2013-04-04 01:18:00,
2013-04-03 21:23:00,42.6,12.6,30.32,NE,56,2.0,0.0,29,0.00,,,0.00,VWS V14.01,2013-04-04 01:23:00,
2013-04-03 21:28:00,42.6,11.8,30.32,NE,55,2.0,0.0,28,0.00,,,0.00,VWS V14.01,2013-04-04 01:28:00,
2013-04-03 21:33:00,42.5,12.5,30.32,NE,51,7.0,0.0,29,0.00,,,0.00,VWS V14.01,2013-04-04 01:33:00,
2013-04-03 21:38:00,42.5,11.7,30.33,NE,49,2.0,0.0,28,0.00,,,0.00,VWS V14.01,2013-04-04 01:38:00,
2013-04-03 21:43:00,42.3,11.5,30.33,NE,55,2.0,0.0,28,0.00,,,0.00,VWS V14.01,2013-04-04 01:43:00,
2013-04-03 21:48:00,42.2,12.2,30.33,NE,37,5.0,0.0,29,0.00,,,0.00,VWS V14.01,2013-04-04 01:48:00,
2013-04-03 21:53:00,42.1,12.1,30.33,NE,55,2.0,0.0,29,0.00,,,0.00,VWS V14.01,2013-04-04 01:53:00,
2013-04-03 21:58:00,42.1,11.4,30.33,NNE,33,5.0,0.0,28,0.00,,,0.00,VWS V14.01,2013-04-04 01:58:00,
2013-04-03 22:03:00,41.9,12.0,30.33,NE,46,7.0,0.0,29,0.00,,,0.00,VWS V14.01,2013-04-04 02:03:00,
2013-04-03 22:08:00,41.9,11.2,30.34,NE,41,5.0,0.0,28,0.00,,,0.00,VWS V14.01,2013-04-04 02:08:00,
2013-04-03 22:13:00,41.9,11.2,30.34,NE,39,4.0,0.0,28,0.00,,,0.00,VWS V14.01,2013-04-04 02:13:00,
2013-04-03 22:18:00,41.8,11.1,30.34,NE,53,1.0,0.0,28,0.00,,,0.00,VWS V14.01,2013-04-04 02:18:00,
2013-04-03 22:23:00,41.6,11.7,30.35,NE,53,3.0,0.0,29,0.00,,,0.00,VWS V14.01,2013-04-04 02:23:00,
2013-04-03 22:28:00,41.5,11.6,30.35,ENE,71,2.0,0.0,29,0.00,,,0.00,VWS V14.01,2013-04-04 02:28:00,
2013-04-03 22:33:00,41.5,11.6,30.35,ENE,70,4.0,0.0,29,0.00,,,0.00,VWS V14.01,2013-04-04 02:33:00,
2013-04-03 22:38:00,41.3,12.2,30.35,NE,42,4.0,0.0,30,0.00,,,0.00,VWS V14.01,2013-04-04 02:38:00,
2013-04-03 22:43:00,41.2,12.1,30.35,NE,47,0.0,0.0,30,0.00,,,0.00,VWS V14.01,2013-04-04 02:43:00,
2013-04-03 22:48:00,41.1,12.8,30.35,NE,53,3.0,0.0,31,0.00,,,0.00,VWS V14.01,2013-04-04 02:48:00,
2013-04-03 22:53:00,41.1,12.0,30.35,ENE,61,5.0,0.0,30,0.00,,,0.00,VWS V14.01,2013-04-04 02:53:00,
2013-04-03 22:57:00,39.8,13.1,30.33,ENE,69,4.0,0.0,33,0.00,,,0.00,VWS V14.01,2013-04-04 02:57:00,
2013-04-03 22:58:00,40.9,11.9,30.35,ENE,70,3.0,0.0,30,0.00,,,0.00,VWS V14.01,2013-04-04 02:58:00,
2013-04-03 23:00:00,39.8,13.7,30.32,ENE,70,1.0,0.0,34,0.00,,,0.00,VWS V14.01,2013-04-04 03:00:00,
2013-04-03 23:03:00,40.8,12.5,30.35,ENE,63,3.0,0.0,31,0.00,,,0.00,VWS V14.01,2013-04-04 03:03:00,
2013-04-03 23:08:00,40.8,12.5,30.35,NE,48,3.0,0.0,31,0.00,,,0.00,VWS V14.01,2013-04-04 03:08:00,
2013-04-03 23:10:00,39.6,13.6,30.32,ENE,63,3.0,0.0,34,0.00,,,0.00,VWS V14.01,2013-04-04 03:10:00,
2013-04-03 23:13:00,40.6,12.4,30.35,ENE,78,4.0,0.0,31,0.00,,,0.00,VWS V14.01,2013-04-04 03:13:00,
2013-04-03 23:18:00,40.5,13.0,30.35,ENE,61,3.0,0.0,32,0.00,,,0.00,VWS V14.01,2013-04-04 03:18:00,
2013-04-03 23:20:00,39.5,13.5,30.32,ENE,74,4.0,0.0,34,0.00,,,0.00,VWS V14.01,2013-04-04 03:20:00,
2013-04-03 23:23:00,40.3,13.5,30.35,ENE,63,4.0,0.0,33,0.00,,,0.00,VWS V14.01,2013-04-04 03:23:00,
2013-04-03 23:28:00,40.1,13.3,30.35,ENE,64,4.0,0.0,33,0.00,,,0.00,VWS V14.01,2013-04-04 03:28:00,
2013-04-03 23:30:00,39.6,12.9,30.32,ENE,71,3.0,0.0,33,0.00,,,0.00,VWS V14.01,2013-04-04 03:30:00,
2013-04-03 23:33:00,40.1,13.3,30.35,ENE,69,3.0,0.0,33,0.00,,,0.00,VWS V14.01,2013-04-04 03:33:00,
2013-04-03 23:38:00,39.9,13.8,30.34,East,82,2.0,0.0,34,0.00,,,0.00,VWS V14.01,2013-04-04 03:38:00,
2013-04-03 23:40:00,39.6,12.9,30.32,ENE,74,4.0,0.0,33,0.00,,,0.00,VWS V14.01,2013-04-04 03:40:00,
2013-04-03 23:43:00,39.8,14.4,30.34,ENE,57,3.0,0.0,35,0.00,,,0.00,VWS V14.01,2013-04-04 03:43:00,
2013-04-03 23:48:00,39.8,13.7,30.34,NE,53,1.0,0.0,34,0.00,,,0.00,VWS V14.01,2013-04-04 03:48:00,
2013-04-03 23:50:00,39.5,12.8,30.32,ENE,73,5.0,0.0,33,0.00,,,0.00,VWS V14.01,2013-04-04 03:50:00,
2013-04-03 23:53:00,39.8,13.7,30.33,East,86,8.0,0.0,34,0.00,,,0.00,VWS V14.01,2013-04-04 03:53:00,
2013-04-03 23:58:00,39.8,13.7,30.33,NE,52,5.0,0.0,34,0.00,,,0.00,VWS V14.01,2013-04-04 03:58:00,